Location: Isles
(48.9125°N, 2.8272°E)
Time: 10:39:10
(UTC+00:00)

Cosmos 1892 - Pass Details

Date: 03 February 2023
Orbit: 486 x 506 km, 82.5° (Epoch: 28 March)

Event Time Altitude Azimuth Distance (km) Brightness Sun altitude
Rises 18:05:26 0° 189° (S) 2,570 6.5 -12.8°
Reaches altitude 10° 18:07:32 10° 190° (S) 1,697 5.6 -13.1°
Maximum altitude 18:11:15 86° 277° (W) 510 2.6 -13.7°
Drops below altitude 10° 18:15:03 10° 9° (N) 1,729 5.2 -14.3°
Sets 18:17:11 0° 10° (N) 2,624 6.1 -14.7°
